Find Starlink 32124

NORAD ID: 60298 Int'l Des: 2024-132 Owner: SPXS Country: US Constellation: starlink operational
LEOCIRCULAR

实时位置

正在加载3D地球...

关于 Starlink 32124

正在加载描述...

即将过境

Passes for default location (London). Set your location on the main map for personalized predictions.

高度历史

Loading altitude history...

两行轨道根数

1 60298U 24132W 26130.37308657 -.00000772 00000-0 -13109-4 0 9994
2 60298 53.1611 125.9717 0001096 92.7008 267.4118 15.31701054101006
Epoch: May 10, 2026 • Age: 14 hours

当前状态

高度 475.0 km
速度 7.63 km/s
星下点 45.93°N, 45.12°W
发射日期 Jul 28, 2024
运行时间 1.7 years
类型 internet

技术详情

分类 Payload
质量 730.00 kg
干质量 700.00 kg
总质量 730.00 kg
长度 0.30 m
直径 4.10 m
跨度 29.00 m
形状 Box + pan
制造商 SPXS
平台类型 Starlink V2M
阶段状态 In Orbit
所有者/国家 SPXS/US

Most Searched